Location: Clanezzo
(45.7500°N, 9.6000°E)
Time: 04:36:02
(UTC+00:00)

EO-79 - Pass Details

Date: 07 July 2022
Orbit: 588 x 603 km, 98.0° (Epoch: 13 August)

Event Time Altitude Azimuth Distance (km) Brightness Sun altitude
Rises 00:20:54 0° 24° (NNE) 2,861 ? -20.5°
Reaches altitude 10° 00:23:22 10° 37° (NE) 1,955 ? -20.4°
Maximum altitude 00:26:58 27° 95° (E) 1,178 ? -20.3°
Enters shadow 00:28:25 22° 128° (SE) 1,332 ? -20.2°
